Date String (YYYY-MM-DD hh:mm:ss) UTC,Instrument flags,absolute air pressure of the measurement (hPa),sample flow rate (lpm),inlet stack bypass flow (lpm),air temperature of the measurement (°C),ambient temperature measured by the external sensor (°C),aerosol sample conditioner tube jacket temperature (°C),OPC LED temperature (°C),internal box temperature (°C),relative humidity of the measurement (%),span deviation,mass concentration of particles derived from Lorenz-Mie calculation of OPC scattering (μg/m³),mass concentration of particles derived from Lorenz-Mie calculation of OPC scattering (μg/m³),mass concentration of particles derived from Lorenz-Mie calculation of OPC scattering (μg/m³)
DateTimeUTC,F1_M11,P_M11,Q1_M11,Q2_M11,T1_M11,T2_M11,T3_M11,T4_M11,T5_M11,U1_M11,ZSPAN_M11,X0_M11,X2_M11,X1_M11
2023-09-29 01:00:00,SystemResetWarning,0825.7,5.00,000.00,027.9,024.0,000.0,036.3,029.4,13.5,0000.0,0022.49,0006.00,0004.43
2023-09-29 01:01:00,SystemResetWarning,0825.6,5.00,000.00,027.8,024.4,000.0,036.3,029.4,13.6,0000.0,0022.07,0005.98,0004.41
2023-09-29 01:02:00,SystemResetWarning,0825.6,5.01,000.00,027.8,024.9,000.0,036.3,029.4,13.6,0000.0,0021.25,0005.92,0004.39
2023-09-29 01:03:00,SystemResetWarning,0825.6,5.00,000.00,027.8,025.3,000.0,036.3,029.5,13.7,0000.0,0021.18,0005.88,0004.38
2023-09-29 01:04:00,SystemResetWarning,0825.6,4.99,000.00,027.8,025.7,000.0,036.3,029.6,13.8,0000.0,0019.95,0005.80,0004.37
2023-09-29 01:05:00,SystemResetWarning,0825.6,5.00,000.00,027.8,026.0,000.0,036.3,029.6,13.9,0000.0,0020.75,0005.82,0004.36
2023-09-29 01:06:00,SystemResetWarning,0825.6,5.00,000.00,027.9,026.3,000.0,036.3,029.7,14.0,0000.0,0020.19,0005.78,0004.36
2023-09-29 01:07:00,SystemResetWarning,0825.6,4.99,000.00,027.9,026.6,000.0,036.3,029.8,14.0,0000.0,0019.31,0005.81,0004.35
2023-09-29 01:08:00,SystemResetWarning,0825.6,4.99,000.00,028.0,026.8,000.0,036.4,029.9,14.2,0000.0,0017.64,0005.84,0004.35
2023-09-29 01:09:00,SystemResetWarning,0825.6,5.00,000.00,028.0,026.9,000.0,036.4,029.9,13.8,0000.0,0017.35,0005.84,0004.36
2023-09-29 01:10:00,SystemResetWarning,0825.6,5.00,000.00,028.1,027.1,000.0,036.4,030.0,13.8,0000.0,0017.40,0005.82,0004.35
2023-09-29 01:11:00,SystemResetWarning,0825.6,4.99,000.00,028.1,027.0,000.0,036.4,030.1,13.8,0000.0,0018.68,0005.82,0004.34
2023-09-29 01:12:00,SystemResetWarning,0825.5,5.00,000.00,028.1,025.3,000.0,036.4,029.9,13.7,0000.0,0019.42,0005.81,0004.34
2023-09-29 01:13:00,SystemResetWarning,0825.4,5.00,000.00,028.0,023.8,000.0,036.3,029.6,13.7,0000.0,0020.79,0005.83,0004.35
2023-09-29 01:14:00,SystemResetWarning,0825.4,5.01,000.00,027.9,023.8,000.0,036.3,029.5,14.1,0000.0,0021.19,0005.85,0004.36
2023-09-29 01:15:00,SystemResetWarning,0825.5,5.01,000.00,027.8,024.2,000.0,036.3,029.3,14.1,0000.0,0021.53,0005.90,0004.37
2023-09-29 01:16:00,SystemResetWarning,0825.4,5.00,000.00,027.8,024.6,000.0,036.3,029.4,13.9,0000.0,0021.55,0005.88,0004.36
2023-09-29 01:17:00,SystemResetWarning,0825.5,5.00,000.00,027.8,025.1,000.0,036.3,029.4,13.7,0000.0,0021.59,0005.87,0004.37
2023-09-29 01:18:00,SystemResetWarning,0825.5,4.99,000.00,027.8,025.5,000.0,036.3,029.5,13.7,0001.4,0021.34,0005.80,0004.36
2023-09-29 01:19:00,SystemResetWarning,0825.5,4.99,000.00,027.8,025.9,000.0,036.3,029.6,13.7,0001.4,0021.64,0005.77,0004.35
2023-09-29 01:20:00,SystemResetWarning,0825.5,5.00,000.00,027.8,026.2,000.0,036.3,029.7,13.7,0001.1,0022.23,0005.75,0004.35
2023-09-29 01:21:00,SystemResetWarning,0825.6,5.00,000.00,027.9,026.4,000.0,036.3,029.7,14.0,0000.4,0022.04,0005.71,0004.35
2023-09-29 01:22:00,SystemResetWarning,0825.6,5.00,000.00,027.9,026.7,000.0,036.4,029.8,14.0,0000.0,0022.03,0005.72,0004.35
2023-09-29 01:23:00,SystemResetWarning,0825.6,5.01,000.00,028.0,026.8,000.0,036.4,029.9,13.8,0000.0,0022.28,0005.75,0004.35
2023-09-29 01:24:00,SystemResetWarning,0825.7,4.99,000.00,028.0,027.0,000.0,036.4,030.0,13.5,0000.0,0021.88,0005.77,0004.34
2023-09-29 01:25:00,SystemResetWarning,0825.7,5.00,000.00,028.1,027.2,000.0,036.4,030.0,13.6,0000.0,0021.83,0005.75,0004.33
2023-09-29 01:26:00,SystemResetWarning,0825.7,4.99,000.00,028.1,027.0,000.0,036.4,030.1,13.5,0000.0,0021.80,0005.76,0004.33
2023-09-29 01:27:00,SystemResetWarning,0825.7,5.00,000.00,028.1,025.4,000.0,036.4,029.9,13.4,0000.0,0021.62,0005.75,0004.33
2023-09-29 01:28:00,SystemResetWarning,0825.7,5.00,000.00,028.1,024.8,000.0,036.4,029.8,13.3,0000.0,0022.04,0005.76,0004.33
2023-09-29 01:29:00,SystemResetWarning,0825.7,5.02,000.00,028.0,024.9,000.0,036.4,029.7,13.3,0000.0,0022.12,0005.82,0004.33
2023-09-29 01:30:00,SystemResetWarning,0825.7,5.00,000.00,028.0,025.2,000.0,036.4,029.6,13.5,0000.0,0023.81,0005.81,0004.33
2023-09-29 01:31:00,SystemResetWarning,0825.8,5.00,000.00,028.0,025.6,000.0,036.4,029.7,13.6,0000.0,0023.77,0005.82,0004.33
2023-09-29 01:32:00,SystemResetWarning,0825.8,5.00,000.00,028.0,025.9,000.0,036.4,029.7,13.4,0000.0,0022.62,0005.81,0004.32
2023-09-29 01:33:00,SystemResetWarning,0825.8,5.01,000.00,028.0,026.2,000.0,036.4,029.8,13.5,0000.0,0020.91,0005.79,0004.33
2023-09-29 01:34:00,SystemResetWarning,0825.8,5.00,000.00,028.0,026.5,000.0,036.5,029.9,13.9,0000.0,0019.56,0005.81,0004.34
2023-09-29 01:35:00,SystemResetWarning,0825.7,5.00,000.00,028.1,026.7,000.0,036.5,029.9,14.3,0000.0,0019.03,0005.78,0004.35
2023-09-29 01:36:00,SystemResetWarning,0825.8,4.99,000.00,028.1,026.9,000.0,036.5,030.0,14.5,0000.0,0018.67,0005.76,0004.35
2023-09-29 01:37:00,SystemResetWarning,0825.8,5.00,000.00,028.2,027.1,000.0,036.5,030.1,14.8,0000.0,0017.86,0005.74,0004.36
2023-09-29 01:38:00,SystemResetWarning,0825.8,4.99,000.00,028.2,026.5,000.0,036.5,030.1,14.6,0000.0,0017.47,0005.74,0004.36
2023-09-29 01:39:00,SystemResetWarning,0825.8,5.01,000.00,028.1,025.1,000.0,036.5,029.9,14.4,0000.0,0017.76,0005.74,0004.36
2023-09-29 01:40:00,SystemResetWarning,0825.8,5.00,000.00,028.1,024.8,000.0,036.4,029.8,14.0,0000.0,0018.11,0005.74,0004.37
2023-09-29 01:41:00,SystemResetWarning,0825.8,5.01,000.00,028.0,025.0,000.0,036.4,029.6,13.7,0000.0,0017.13,0005.74,0004.38
2023-09-29 01:42:00,SystemResetWarning,0825.8,5.00,000.00,028.0,025.3,000.0,036.4,029.6,14.1,0000.0,0016.43,0005.73,0004.39
2023-09-29 01:43:00,SystemResetWarning,0825.8,5.01,000.00,028.0,025.7,000.0,036.5,029.7,13.9,0000.0,0017.55,0005.77,0004.41
2023-09-29 01:44:00,SystemResetWarning,0825.8,4.99,000.00,028.0,026.0,000.0,036.5,029.8,13.7,0000.0,0018.34,0005.81,0004.42
2023-09-29 01:45:00,SystemResetWarning,0825.8,5.00,000.00,028.0,026.3,000.0,036.5,029.8,13.6,0000.0,0019.20,0005.84,0004.42
2023-09-29 01:46:00,SystemResetWarning,0825.8,5.00,000.00,028.1,026.6,000.0,036.5,029.9,13.4,0000.0,0020.05,0005.82,0004.42
2023-09-29 01:47:00,SystemResetWarning,0825.7,5.01,000.00,028.1,026.8,000.0,036.5,030.0,13.3,0000.0,0020.67,0005.89,0004.44
2023-09-29 01:48:00,SystemResetWarning,0825.7,5.00,000.00,028.2,027.0,000.0,036.5,030.0,13.2,0000.0,0021.80,0005.90,0004.45
2023-09-29 01:49:00,SystemResetWarning,0825.7,4.98,000.00,028.2,026.7,000.0,036.5,030.1,13.6,0000.0,0021.44,0005.88,0004.45
2023-09-29 01:50:00,SystemResetWarning,0825.7,5.00,000.00,028.2,025.2,000.0,036.5,029.9,13.7,0000.0,0021.15,0005.92,0004.47
2023-09-29 01:51:00,SystemResetWarning,0825.7,5.02,000.00,028.1,024.7,000.0,036.4,029.8,13.9,0000.0,0022.08,0005.88,0004.48
2023-09-29 01:52:00,SystemResetWarning,0825.6,5.00,000.00,028.1,024.9,000.0,036.4,029.7,13.9,0000.0,0021.53,0005.86,0004.48
2023-09-29 01:53:00,SystemResetWarning,0825.6,4.99,000.00,028.0,025.2,000.0,036.5,029.6,13.5,0000.0,0021.29,0005.87,0004.48
2023-09-29 01:54:00,SystemResetWarning,0825.7,5.00,000.00,028.0,025.6,000.0,036.5,029.7,13.5,0000.0,0020.18,0005.85,0004.49
2023-09-29 01:55:00,SystemResetWarning,0825.7,5.00,000.00,028.0,025.9,000.0,036.5,029.8,13.5,0000.0,0019.37,0005.84,0004.49
2023-09-29 01:56:00,SystemResetWarning,0825.7,4.99,000.00,028.0,026.2,000.0,036.5,029.8,13.5,0000.0,0019.18,0005.81,0004.50
2023-09-29 01:57:00,SystemResetWarning,0825.7,4.99,000.00,028.1,026.5,000.0,036.5,029.9,13.4,0000.0,0019.51,0005.88,0004.51
2023-09-29 01:58:00,SystemResetWarning,0825.7,4.99,000.00,028.1,026.7,000.0,036.5,030.0,13.4,0000.0,0019.32,0005.90,0004.50
2023-09-29 01:59:00,SystemResetWarning,0825.8,5.00,000.00,028.2,026.9,000.0,036.6,030.0,13.3,0000.0,0018.00,0005.87,0004.50
